NOAA 16 DEB, 41078

Orbit data source: Space-Track

NOAA 16 DEB, 41078 is space debris in SSO originally from a launch on Thu, 21 Sep 2000 UTC launched from the Air Force Western Test Range (AFWTR). Debris objects in space refer to the collection of defunct objects orbiting the Earth. Examples of debris include non-operational satellites, rocket bodies, and fragments generated from explosions, collisions, or faulty payload assembly.

Loading next visibility...
Identifier
41078, 2000-055AM
Orbit
SSO
Country
Flag of USUS
Related business
Manufacturer
Unknown
Mission
Spacecraft
Bus & Motor
Unknown
Mass
Unknown
Launch date (UTC)
2000-09-21 (26 years ago)
Launch vehicle
Unknown
Launch site
Air Force Western Test Range (AFWTR)
Object type
Payload
Rocket body
Debris
Shape & HBR
Unknown shape, 0.1 m
Radar Cross Section
Small (<0.1 m²)

Expand to show TLE details & history
Last TLE update: 7 hours ago

TLE from 7 hours ago
0 NOAA 16 DEB
1 41078U 00055AM  26112.17730720  .00000345  00000-0  39919-3 0  9995
2 41078  98.9252 233.3324 0289600 161.7171 199.4646 13.58429149515169
Epoch: 2026-04-22T04:15Z
TLE epoch observation values (Epoch: 2026-04-22T04:15:19.342Z)
Latitude
0.00006°
Longitude
-40.74068°
Altitude
1,247.525 km
Speed
7.132 km/s
True Right ascension
15h 33m 19s
True Declination
0° 00' 00"
Sunlit
Object was in full shadow at epoch
Visualization orbit readout
Latitude
Unknown
Longitude
Unknown
Altitude
Unknown
Speed
Unknown
Apparent Right ascension
Unknown
Apparent Declination
Unknown
Sunlit
N/A
Visualization observer readout
Local Sidereal Time
18:41:26
Azimuth
Unknown
Elevation
Unknown
Doppler factor
Unknown
Orbital elements
Apogee altitude
1,253.445 km
Perigee altitude
823.864 km
Semi-major axis
7,416.792 km
Eccentricity
0.02896
Inclination
98.9252°
RAAN
233.3324°
Arg. of periapsis
161.7171°
True anomaly
198.39538°
Mean anomaly
199.4646°
Eccentric anomaly
198.92641°
Mean motion
3.39797 °/min
Orbital period
105.95 mins
BSTAR
0.00039919
Loading maneuver chart data...
Computing Atmospheric mass density...
Loading historical data...
Loading historical data...
Loading historical data...
Loading historical data...
Loading historical data...
Loading historical data...
Loading historical data...

Documentation

Showing up to 5 results
|